{"data":{"norad_id":66874,"epoch":"2026-05-25T01:11:33.696384Z","epoch_age_seconds":60844,"freshness":"FRESH","line1":"1 66874U 25281AC  26145.04969556  .00015601  00000+0  57512-3 0  9996","line2":"2 66874  42.9978 272.2414 0000988 292.4610  67.6137 15.27587108 27859","mean_motion":15.27587108,"eccentricity":9.88e-5,"inclination_deg":42.9978,"raan_deg":272.2414,"arg_perigee_deg":292.461,"mean_anomaly_deg":67.6137,"bstar":0.00057512,"rev_number":2785,"period_min":94.266310082004,"perigee_km":482.34992912965,"apogee_km":483.70569529654,"semimajor_km":6861.1648122131,"source":"CELESTRAK","updated_at":"2026-05-25T13:38:21.376601Z"}}